• Em Portugal
  • Lista de países
  • Para 7 dias
  • Temperatura da água
  • Mapas de satélite
  • Mapa do tempo
  • Widgets de tempo
  • user-avatar
    Iniciar Sessão

    Previsão horária em Manaus

    Hoje, 17 Julho, Terça-feira

    Tempo Temperatura Precipitação Vento Pressão Humidade
    00:00 +26°C° 0 mm 1 m/s 756 mmHg 78%
    01:00 +26°C° 0 mm 1 m/s 756 mmHg 80%
    02:00 +25°C° 0 mm 1 m/s 756 mmHg 82%
    03:00 +25°C° 0 mm 1 m/s 756 mmHg 84%
    04:00 +25°C° 0 mm 1 m/s 756 mmHg 86%
    05:00 +24°C° 0 mm 1 m/s 756 mmHg 88%
    06:00 +26°C° 0 mm 1 m/s 757 mmHg 84%
    07:00 +27°C° 0 mm 1 m/s 757 mmHg 80%
    08:00 +28°C° 0 mm 1 m/s 757 mmHg 76%
    09:00 +30°C° 0,1 mm 1 m/s 757 mmHg 68%
    10:00 +33°C° 0,1 mm 1 m/s 757 mmHg 60%
    11:00 +33°C° 0,1 mm 0 m/s 757 mmHg 51%
    12:00 +35°C° 0,1 mm 1 m/s 756 mmHg 50%
    13:00 +35°C° 0,1 mm 1 m/s 756 mmHg 49%
    14:00 +35°C° 0,1 mm 1 m/s 755 mmHg 48%
    15:00 +34°C° 0 mm 1 m/s 755 mmHg 51%
    16:00 +34°C° 0 mm 1 m/s 754 mmHg 55%
    17:00 +33°C° 0 mm 1 m/s 754 mmHg 58%
    18:00 +32°C° 0 mm 1 m/s 754 mmHg 62%
    19:00 +30°C° 0 mm 1 m/s 754 mmHg 66%
    20:00 +28°C° 0 mm 1 m/s 755 mmHg 71%
    21:00 +26°C° 0 mm 0 m/s 755 mmHg 72%
    22:00 +25°C° 0 mm 0 m/s 755 mmHg 74%
    23:00 +25°C° 0 mm 0 m/s 756 mmHg 76%

    Amanhã, 18 Julho, Quarta-feira

    Tempo Temperatura Precipitação Vento Pressão Humidade
    00:00 +25°C° 0 mm 0 m/s 756 mmHg 77%
    01:00 +24°C° 0 mm 0 m/s 755 mmHg 79%
    02:00 +24°C° 0 mm 0 m/s 755 mmHg 80%
    03:00 +24°C° 0 mm 0 m/s 755 mmHg 81%
    04:00 +23°C° 0 mm 0 m/s 755 mmHg 81%
    05:00 +23°C° 0 mm 0 m/s 755 mmHg 82%
    06:00 +25°C° 0 mm 0 m/s 755 mmHg 77%
    07:00 +26°C° 0 mm 0 m/s 756 mmHg 72%
    08:00 +28°C° 0 mm 0 m/s 756 mmHg 67%
    09:00 +32°C° 0 mm 1 m/s 756 mmHg 58%
    10:00 +34°C° 0 mm 1 m/s 756 mmHg 50%
    11:00 +37°C° 0 mm 2 m/s 756 mmHg 41%
    12:00 +37°C° 0 mm 2 m/s 755 mmHg 41%
    13:00 +37°C° 0 mm 2 m/s 754 mmHg 41%
    14:00 +37°C° 0 mm 2 m/s 754 mmHg 41%
    15:00 +35°C° 0 mm 1 m/s 753 mmHg 45%
    16:00 +34°C° 0 mm 1 m/s 753 mmHg 48%
    17:00 +34°C° 0 mm 1 m/s 753 mmHg 52%
    18:00 +32°C° 0 mm 1 m/s 753 mmHg 55%
    19:00 +31°C° 0 mm 1 m/s 754 mmHg 59%
    20:00 +29°C° 0 mm 1 m/s 754 mmHg 63%
    21:00 +29°C° 0 mm 1 m/s 754 mmHg 65%
    22:00 +28°C° 0 mm 1 m/s 755 mmHg 67%
    23:00 +28°C° 0 mm 1 m/s 755 mmHg 70%

    Depois de amanhã, 19 Julho, Quinta-feira

    Tempo Temperatura Precipitação Vento Pressão Humidade
    00:00 +27°C° 0 mm 1 m/s 755 mmHg 73%
    01:00 +27°C° 0 mm 1 m/s 754 mmHg 76%
    02:00 +26°C° 0 mm 1 m/s 754 mmHg 79%
    03:00 +26°C° 0,1 mm 1 m/s 754 mmHg 84%
    04:00 +25°C° 0,1 mm 1 m/s 754 mmHg 88%
    05:00 +25°C° 0,1 mm 1 m/s 754 mmHg 92%
    06:00 +25°C° 0,1 mm 1 m/s 755 mmHg 89%
    07:00 +26°C° 0,1 mm 1 m/s 755 mmHg 85%
    08:00 +27°C° 0,1 mm 1 m/s 756 mmHg 82%
    09:00 +30°C° 0 mm 1 m/s 756 mmHg 70%
    10:00 +32°C° 0 mm 2 m/s 756 mmHg 58%
    11:00 +36°C° 0 mm 2 m/s 756 mmHg 46%
    12:00 +36°C° 0 mm 2 m/s 755 mmHg 44%
    13:00 +37°C° 0 mm 2 m/s 754 mmHg 42%
    14:00 +37°C° 0 mm 2 m/s 753 mmHg 40%
    15:00 +35°C° 0 mm 1 m/s 753 mmHg 46%
    16:00 +33°C° 0 mm 1 m/s 752 mmHg 52%
    17:00 +30°C° 0 mm 0 m/s 752 mmHg 58%
    18:00 +31°C° 0 mm 1 m/s 753 mmHg 61%
    19:00 +30°C° 0 mm 1 m/s 753 mmHg 65%
    20:00 +29°C° 0 mm 1 m/s 754 mmHg 69%
    21:00 +28°C° 0,2 mm 1 m/s 754 mmHg 74%
    22:00 +27°C° 0,2 mm 1 m/s 755 mmHg 79%
    23:00 +26°C° 0,2 mm 1 m/s 755 mmHg 85%

    20 Julho, Sexta-feira

    Tempo Temperatura Precipitação Vento Pressão Humidade
    00:00 +24°C° 0,1 mm 0 m/s 754 mmHg 86%
    01:00 +23°C° 0,1 mm 0 m/s 754 mmHg 88%
    02:00 +23°C° 0,1 mm 0 m/s 754 mmHg 90%
    03:00 +23°C° 0 mm 0 m/s 754 mmHg 91%
    04:00 +23°C° 0 mm 0 m/s 754 mmHg 92%
    05:00 +22°C° 0 mm 0 m/s 754 mmHg 93%
    06:00 +23°C° 0 mm 0 m/s 755 mmHg 90%
    07:00 +24°C° 0 mm 0 m/s 755 mmHg 87%
    08:00 +27°C° 0 mm 1 m/s 756 mmHg 84%
    09:00 +30°C° 0,1 mm 1 m/s 756 mmHg 74%
    10:00 +32°C° 0,1 mm 2 m/s 756 mmHg 64%
    11:00 +35°C° 0,1 mm 2 m/s 756 mmHg 54%
    12:00 +35°C° 0 mm 2 m/s 755 mmHg 52%
    13:00 +36°C° 0 mm 2 m/s 754 mmHg 50%
    14:00 +36°C° 0 mm 2 m/s 753 mmHg 48%
    15:00 +35°C° 0 mm 1 m/s 753 mmHg 51%
    16:00 +34°C° 0 mm 1 m/s 752 mmHg 54%
    17:00 +33°C° 0 mm 1 m/s 752 mmHg 57%
    18:00 +32°C° 0 mm 1 m/s 753 mmHg 61%
    19:00 +30°C° 0 mm 1 m/s 753 mmHg 65%
    20:00 +29°C° 0 mm 1 m/s 754 mmHg 70%
    21:00 +28°C° 0 mm 1 m/s 754 mmHg 71%
    22:00 +26°C° 0 mm 0 m/s 754 mmHg 73%
    23:00 +25°C° 0 mm 0 m/s 755 mmHg 75%

    21 Julho, Sábado

    Tempo Temperatura Precipitação Vento Pressão Humidade
    00:00 +25°C° 0 mm 0 m/s 755 mmHg 77%
    01:00 +25°C° 0 mm 0 m/s 754 mmHg 79%
    02:00 +24°C° 0 mm 0 m/s 754 mmHg 81%
    03:00 +26°C° 0,7 mm 1 m/s 754 mmHg 84%
    04:00 +26°C° 0,7 mm 1 m/s 754 mmHg 87%
    05:00 +25°C° 0,7 mm 1 m/s 754 mmHg 91%
    06:00 +26°C° 0,1 mm 1 m/s 755 mmHg 89%
    07:00 +25°C° 0,1 mm 0 m/s 756 mmHg 88%
    08:00 +25°C° 0,1 mm 0 m/s 756 mmHg 87%
    09:00 +29°C° 0,6 mm 1 m/s 756 mmHg 81%
    10:00 +30°C° 0,6 mm 1 m/s 756 mmHg 75%
    11:00 +32°C° 0,6 mm 1 m/s 756 mmHg 69%
    12:00 +34°C° 0,3 mm 2 m/s 755 mmHg 62%
    13:00 +35°C° 0,3 mm 2 m/s 754 mmHg 54%
    14:00 +36°C° 0,3 mm 2 m/s 753 mmHg 47%
    15:00 +35°C° 0 mm 1 m/s 753 mmHg 49%
    16:00 +35°C° 0 mm 1 m/s 752 mmHg 51%
    17:00 +32°C° 0 mm 0 m/s 752 mmHg 53%
    18:00 +31°C° 0 mm 0 m/s 753 mmHg 56%
    19:00 +29°C° 0 mm 0 m/s 753 mmHg 60%
    20:00 +28°C° 0 mm 0 m/s 754 mmHg 63%
    21:00 +27°C° 0 mm 0 m/s 754 mmHg 66%
    22:00 +26°C° 0 mm 0 m/s 754 mmHg 69%
    23:00 +25°C° 0 mm 0 m/s 754 mmHg 72%

    22 Julho, Domingo

    Tempo Temperatura Precipitação Vento Pressão Humidade
    00:00 +25°C° 0,1 mm 0 m/s 754 mmHg 74%
    01:00 +24°C° 0,1 mm 0 m/s 754 mmHg 76%
    02:00 +24°C° 0,1 mm 0 m/s 754 mmHg 78%
    03:00 +24°C° 0,1 mm 0 m/s 754 mmHg 79%
    04:00 +23°C° 0,1 mm 0 m/s 754 mmHg 80%
    05:00 +25°C° 0,1 mm 1 m/s 754 mmHg 82%
    06:00 +26°C° 0 mm 1 m/s 755 mmHg 77%
    07:00 +27°C° 0 mm 1 m/s 755 mmHg 72%
    08:00 +28°C° 0 mm 1 m/s 756 mmHg 68%
    09:00 +31°C° 0 mm 1 m/s 756 mmHg 58%
    10:00 +34°C° 0 mm 2 m/s 755 mmHg 49%
    11:00 +36°C° 0 mm 2 m/s 755 mmHg 39%
    12:00 +37°C° 0 mm 2 m/s 755 mmHg 36%
    13:00 +38°C° 0 mm 2 m/s 754 mmHg 33%
    14:00 +39°C° 0 mm 2 m/s 753 mmHg 30%
    15:00 +37°C° 0 mm 1 m/s 753 mmHg 34%
    16:00 +36°C° 0 mm 1 m/s 752 mmHg 38%
    17:00 +35°C° 0 mm 1 m/s 752 mmHg 41%
    18:00 +33°C° 0 mm 1 m/s 752 mmHg 46%
    19:00 +31°C° 0 mm 1 m/s 753 mmHg 51%
    20:00 +29°C° 0 mm 1 m/s 753 mmHg 56%
    21:00 +29°C° 0 mm 1 m/s 754 mmHg 58%
    22:00 +28°C° 0 mm 1 m/s 754 mmHg 60%
    23:00 +28°C° 0 mm 1 m/s 754 mmHg 63%
    Mostrar mais